Theta_e
330 330 333 335 337 339 339 334 334 333 336 334 333 331 331 332 333 332 332 331 331 335 334 338 340 340 335 332 329 328 336 337
328 328 329 332 337 339 339 336 333 332 332 333 331 330 330 329 329 330 328 329 333 332 333 334 336 337 336 335 327 331 334 334
329 329 330 331 336 339 339 338 334 332 329 332 330 329 330 328 329 331 329 332 335 334 333 331 333 337 336 335 327 330 332 333
326 325 327 329 335 338 338 337 335 331 328 329 330 328 329 329 331 333 336 335 339 336 333 331 332 334 336 331 329 327 331 331
326 326 326 329 334 338 336 336 334 330 328 327 327 328 330 330 331 334 337 339 339 339 336 334 333 336 336 327 327 327 326 326
327 327 327 328 331 335 335 339 334 330 327 326 326 328 330 331 332 335 338 341 340 337 337 335 335 334 334 327 323 323 323 324
324 326 325 325 329 333 332 335 332 330 328 327 327 329 330 331 333 336 338 341 343 338 337 333 333 330 330 328 325 324 323 323
324 323 325 325 328 332 333 333 332 329 332 332 334 335 334 334 335 337 339 340 344 339 334 332 333 331 329 327 327 324 324 324
323 323 324 327 329 329 331 333 333 333 335 334 334 334 336 337 338 338 339 340 341 337 333 330 332 330 330 328 327 325 324 324
323 322 323 327 328 329 331 333 334 335 338 337 338 337 337 338 338 339 340 339 340 337 332 329 328 330 329 329 328 325 323 323
323 323 323 326 328 329 331 333 334 336 337 338 338 338 337 338 339 337 339 340 338 335 332 330 329 330 330 329 328 326 325 323
325 324 324 325 328 331 332 333 333 334 336 337 338 336 335 336 337 337 338 339 337 335 333 331 331 330 328 329 329 326 323 323
326 326 327 328 328 331 332 334 334 335 336 337 337 335 336 336 336 337 336 337 337 336 335 334 331 329 329 330 329 327 325 324
327 329 330 331 332 332 334 334 335 336 336 335 335 335 335 334 335 335 336 336 336 336 336 334 332 331 330 330 329 328 328 326
327 327 330 334 333 334 335 335 333 336 337 336 336 335 335 335 335 334 334 334 334 336 336 334 333 332 331 330 328 328 327 326
327 329 331 335 336 337 337 336 335 337 337 336 337 337 336 337 336 334 334 333 334 335 335 334 334 332 332 330 329 328 328 327
327 329 331 336 339 340 339 337 338 338 338 338 338 337 336 336 334 333 333 335 336 334 332 330 332 332 331 331 329 328 328 326
326 329 332 338 332 330 338 339 339 340 340 339 339 337 335 334 333 332 333 331 328 329 330 331 330 330 329 328 326 326 325 325
330 331 329 326 327 327 329 333 334 334 335 335 335 334 333 332 331 331 330 329 329 330 329 326 325 326 326 326 325 325 322 321
327 325 325 325 324 326 328 330 330 329 330 330 330 331 330 329 328 328 327 324 325 325 323 322 322 321 320 320 319 319 318 317
Wind_Speed
11 11 9 12 11 10 9 6 6 6 4 3 1 1 2 2 3 3 2 1 2 2 1 2 1 1 2 4 4 3 5 4
12 12 12 11 11 11 9 8 6 6 3 4 4 3 2 3 4 4 2 2 2 2 2 2 2 1 1 2 2 4 5 4
10 6 6 7 10 10 11 10 9 8 6 4 4 4 4 4 4 4 3 3 3 2 2 2 2 2 1 2 2 4 5 5
8 8 9 10 9 11 9 10 9 7 7 6 6 4 5 4 4 4 5 3 2 3 3 3 2 3 2 2 3 3 4 6
16 16 14 15 11 11 11 10 7 8 8 6 4 5 4 4 4 5 6 4 5 3 2 3 3 2 5 3 3 2 2 2
15 12 12 10 8 11 10 10 10 9 7 5 4 4 4 4 4 4 6 5 5 4 3 3 1 1 2 4 3 1 2 3
11 12 12 12 12 11 10 10 11 10 7 6 5 6 4 4 4 4 5 6 6 5 3 1 3 3 1 2 2 2 2 3
13 12 12 10 9 10 9 8 9 9 6 3 2 2 3 4 4 4 6 4 3 2 3 4 3 2 2 2 2 2 2 3
6 7 7 7 7 9 11 12 9 8 4 3 2 3 3 3 3 4 4 4 3 4 2 2 2 3 3 3 2 3 2 2
7 8 8 10 11 11 10 11 10 9 6 3 3 3 2 2 3 4 5 6 5 4 4 3 3 2 2 2 2 1 1 3
8 9 11 8 11 14 13 12 10 9 7 5 3 2 3 2 2 3 4 5 5 4 5 3 3 2 2 3 3 4 2 2
9 10 9 12 15 9 9 9 10 6 7 5 6 5 4 4 4 3 3 4 5 5 4 5 4 2 4 3 2 3 3 3
14 15 17 16 11 12 11 9 8 7 10 8 6 2 3 2 2 5 5 5 6 6 4 3 4 3 3 4 4 4 3 3
13 12 9 9 7 9 9 12 12 10 9 7 8 7 5 3 2 1 2 3 5 4 4 3 4 4 5 5 4 4 4 4
13 11 11 11 13 12 10 12 10 8 7 7 7 6 6 5 5 4 3 1 3 5 4 4 3 5 4 4 4 5 4 4
18 16 13 15 16 14 12 10 7 7 7 6 5 5 3 4 4 3 3 2 2 3 5 3 3 4 3 4 3 3 4 4
18 14 14 12 11 11 8 9 8 8 6 6 6 6 6 5 1 2 1 2 1 3 6 5 3 3 3 1 1 2 2 3
6 6 6 9 10 7 9 9 8 7 6 4 5 5 4 3 4 3 2 2 4 6 3 3 1 2 2 2 1 1 1 2
10 10 13 14 13 11 5 9 8 8 7 4 4 4 5 4 3 2 3 2 3 2 4 3 3 3 3 3 3 3 3 4
9 14 16 13 16 11 5 4 8 8 6 4 4 5 5 5 3 3 4 5 5 5 5 5 4 4 4 5 4 4 3 4
Wind_Direction
168 176 182 186 179 188 186 189 181 174 179 171 154 163 176 188 205 203 234 280 289 296 316 317 301 48 61 57 34 51 121 132
182 184 183 174 179 191 184 189 175 187 174 175 175 182 185 217 215 198 195 244 261 255 216 231 277 314 68 69 70 109 122 128
195 183 167 166 184 191 192 181 183 190 186 181 179 193 192 211 214 211 198 228 247 228 262 214 228 265 162 118 105 133 143 149
172 179 183 186 187 195 184 190 191 180 195 191 193 191 192 200 211 219 220 215 244 199 232 236 242 223 154 154 146 157 180 167
200 192 190 191 196 188 185 181 181 189 199 199 196 211 186 208 217 210 220 209 208 195 204 234 244 192 154 122 97 99 168 238
205 200 203 190 187 189 178 184 181 193 196 197 197 201 212 219 217 213 222 198 195 189 209 226 304 77 151 139 129 123 200 211
213 204 195 186 189 179 180 184 178 191 192 205 191 206 216 224 228 217 209 203 196 188 185 224 177 134 131 130 130 141 193 207
213 200 191 183 184 182 184 181 171 176 185 184 118 197 234 213 214 216 206 213 205 135 160 170 164 140 163 175 178 186 171 207
216 193 174 163 159 163 180 175 177 166 160 143 144 196 197 219 195 200 201 193 213 168 188 187 172 184 200 194 170 206 241 177
211 181 174 183 181 183 182 183 171 181 175 140 161 169 187 149 184 187 198 201 190 192 186 201 190 225 211 197 207 195 224 194
206 193 191 166 181 190 190 183 172 184 145 122 96 90 92 145 207 199 213 198 183 183 187 180 202 192 240 219 218 207 249 213
193 190 186 189 207 191 182 172 179 178 151 160 187 187 167 193 189 182 195 185 180 180 178 194 214 196 222 233 208 212 184 248
198 196 201 195 186 190 191 163 159 190 183 190 200 170 163 190 145 204 189 180 169 173 201 204 218 204 224 235 239 218 195 221
208 199 179 184 158 173 164 174 192 191 180 161 189 191 195 171 195 191 234 231 161 158 185 214 227 237 219 217 234 264 295 271
199 184 180 165 169 175 177 186 182 180 164 164 201 189 195 196 203 216 183 159 262 144 176 202 222 245 253 263 234 243 229 233
195 193 184 182 177 177 180 177 160 148 154 151 169 177 176 220 218 184 139 147 225 163 137 82 358 288 253 243 269 280 253 252
199 187 185 176 168 159 170 136 134 138 149 151 159 177 192 225 248 112 218 183 163 76 26 42 341 326 307 331 311 305 302 305
145 155 135 94 101 42 114 112 123 125 133 166 169 184 169 130 150 202 137 63 21 30 24 29 23 75 85 100 64 32 295 273
116 102 86 73 24 122 85 104 111 98 101 87 104 119 131 131 146 134 103 22 29 53 73 94 81 74 56 57 41 24 359 342
132 108 109 108 98 291 84 103 100 90 87 97 105 113 122 121 137 126 89 84 84 103 96 79 65 52 39 28 14 18 1 334